#timestamp,LO_Frequency,Hit,Temp,Hum 
1479535215.5,286046901.3,N,0.0,0.0
1479535235.3,286046901.6,N,0.0,0.0
1479535255.2,286046901.0,N,0.0,0.0
1479535275.0,286046900.8,N,0.0,0.0
1479535275.9,286046900.8,N,0.0,0.0
1479535295.8,286046901.8,N,0.0,0.0
1479535315.6,286046901.8,N,0.0,0.0
1479535335.4,286046901.4,N,0.0,0.0
1479535355.3,286046898.9,N,0.0,0.0
1479535375.1,286046899.5,N,0.0,0.0
1479535395.8,286046899.7,N,0.0,0.0
1479535415.7,286046899.4,N,0.0,0.0
1479535435.5,286046899.7,N,0.0,0.0
1479535455.4,286046900.1,N,0.0,0.0
1479535475.2,286046897.7,N,0.0,0.0
1479535495.0,286046900.4,N,0.0,0.0
1479535495.9,286046900.4,N,0.0,0.0
1479535515.8,286046897.8,N,0.0,0.0
1479535535.6,286046898.1,N,0.0,0.0
1479535555.5,286046897.7,N,0.0,0.0
1479535575.3,286046897.8,N,0.0,0.0
1479535595.1,286046898.4,N,0.0,0.0
1479535615.9,286046896.1,N,0.0,0.0
1479535635.7,286046896.4,N,0.0,0.0
1479535655.5,286046896.1,N,0.0,0.0
1479535675.4,286046895.9,N,0.0,0.0
1479535695.2,286046896.9,N,0.0,0.0
1479535715.1,286046897.0,N,0.0,0.0
1479535716.0,286046897.0,N,0.0,0.0
1479535735.8,286046896.2,N,0.0,0.0
1479535755.6,286046897.2,N,0.0,0.0
1479535775.5,286046894.3,N,0.0,0.0
1479535795.3,286046895.3,N,0.0,0.0
1479535815.2,286046894.8,N,0.0,0.0
1479535835.9,286046895.1,N,0.0,0.0
1479535855.7,286046894.8,N,0.0,0.0
1479535875.6,286046895.0,N,0.0,0.0
1479535895.4,286046894.8,N,0.0,0.0
1479535915.2,286046892.9,N,0.0,0.0
1479535935.1,286046892.6,N,0.0,0.0
1479535936.0,286046892.6,N,0.0,0.0
1479535955.8,286046893.1,N,0.0,0.0
1479535975.7,286046892.8,N,0.0,0.0
1479535995.5,286046892.8,N,0.0,0.0
1479536015.3,286046892.9,N,0.0,0.0
1479536035.2,286046892.9,N,0.0,0.0
1479536055.0,286046895.4,N,0.0,0.0
1479536055.9,286046895.4,N,0.0,0.0
1479536075.8,286046892.7,N,0.0,0.0
1479536095.6,286046892.8,N,0.0,0.0
1479536115.4,286046892.7,N,0.0,0.0
1479536135.3,286046893.0,N,0.0,0.0
1479536155.1,286046893.1,N,0.0,0.0
1479536175.8,286046893.1,N,0.0,0.0
1479536195.7,286046893.2,N,0.0,0.0
1479536215.5,286046893.1,N,0.0,0.0
1479536235.4,286046893.8,N,0.0,0.0
1479536255.2,286046890.9,N,0.0,0.0
1479536275.0,286046890.9,N,0.0,0.0
1479536275.9,286046890.9,N,0.0,0.0
1479536295.8,286046890.9,N,0.0,0.0
1479536315.6,286046891.8,N,0.0,0.0
1479536335.4,286046892.1,N,0.0,0.0
1479536355.3,286046892.1,N,0.0,0.0
1479536375.1,286046891.1,N,0.0,0.0
1479536395.9,286046889.6,N,0.0,0.0
1479536415.7,286046889.5,N,0.0,0.0
1479536435.5,286046889.6,N,0.0,0.0
1479536455.4,286046889.8,N,0.0,0.0
1479536475.2,286046890.3,N,0.0,0.0
1479536495.1,286046890.4,N,0.0,0.0
1479536496.0,286046890.4,N,0.0,0.0
1479536515.8,286046890.6,N,0.0,0.0
1479536535.6,286046890.5,N,0.0,0.0
1479536555.5,286046890.8,N,0.0,0.0
1479536575.3,286046890.3,N,0.0,0.0
1479536595.1,286046888.2,N,0.0,0.0
1479536615.9,286046887.8,N,0.0,0.0
1479536635.7,286046888.3,N,0.0,0.0
1479536655.6,286046888.0,N,0.0,0.0
1479536675.4,286046888.5,N,0.0,0.0
1479536695.2,286046889.0,N,0.0,0.0
1479536715.1,286046886.1,N,0.0,0.0
1479536716.0,286046886.1,N,0.0,0.0
1479536735.8,286046886.1,N,0.0,0.0
1479536755.7,286046886.8,N,0.0,0.0
1479536775.5,286046886.4,N,0.0,0.0
1479536795.3,286046884.6,N,0.0,0.0
1479536815.2,286046885.1,N,0.0,0.0
1479536835.9,286046885.7,N,0.0,0.0
1479536855.7,286046885.3,N,0.0,0.0
1479536875.6,286046885.6,N,0.0,0.0
1479536895.4,286046885.4,N,0.0,0.0
1479536915.3,286046885.1,N,0.0,0.0
1479536935.1,286046884.7,N,0.0,0.0
1479536936.0,286046884.7,N,0.0,0.0
1479536955.8,286046884.7,N,0.0,0.0
1479536975.7,286046884.9,N,0.0,0.0
1479536995.5,286046884.8,N,0.0,0.0
1479537015.3,286046887.2,N,0.0,0.0
1479537035.2,286046885.1,N,0.0,0.0
1479537055.0,286046885.4,N,0.0,0.0
1479537055.9,286046885.4,N,0.0,0.0
1479537075.8,286046883.2,N,0.0,0.0
1479537095.6,286046883.0,N,0.0,0.0
1479537115.4,286046881.7,N,0.0,0.0
1479537135.3,286046882.3,N,0.0,0.0
1479537155.1,286046879.7,N,0.0,0.0
1479537175.9,286046881.9,N,0.0,0.0
1479537195.7,286046882.8,N,0.0,0.0
1479537215.5,286046879.7,N,0.0,0.0
1479537235.4,286046880.1,N,0.0,0.0
1479537255.2,286046882.6,N,0.0,0.0
1479537275.0,286046879.7,N,0.0,0.0
1479537275.9,286046879.7,N,0.0,0.0
1479537295.8,286046882.5,N,0.0,0.0
1479537315.6,286046882.1,N,0.0,0.0
1479537335.5,286046884.0,N,0.0,0.0
1479537355.3,286046881.4,N,0.0,0.0
1479537375.1,286046884.4,N,0.0,0.0
1479537395.9,286046883.1,N,0.0,0.0
1479537415.7,286046885.1,N,0.0,0.0
1479537435.5,286046885.8,N,0.0,0.0
1479537455.4,286046885.5,N,0.0,0.0
1479537475.2,286046885.0,N,0.0,0.0
1479537495.1,286046886.7,N,0.0,0.0
1479537496.0,286046886.7,N,0.0,0.0
1479537515.8,286046886.4,N,0.0,0.0
1479537535.6,286046886.5,N,0.0,0.0
1479537555.5,286046889.0,N,0.0,0.0
1479537575.3,286046890.4,N,0.0,0.0
1479537595.1,286046887.7,N,0.0,0.0
1479537615.9,286046890.1,N,0.0,0.0
1479537635.7,286046889.8,N,0.0,0.0
1479537655.6,286046892.3,N,0.0,0.0
1479537675.4,286046892.4,N,0.0,0.0
1479537695.2,286046892.3,N,0.0,0.0
1479537715.1,286046891.8,N,0.0,0.0
1479537716.0,286046891.8,N,0.0,0.0
1479537735.8,286046891.6,N,0.0,0.0
1479537755.7,286046891.8,N,0.0,0.0
1479537775.5,286046892.2,N,0.0,0.0
1479537795.3,286046891.6,N,0.0,0.0
1479537815.2,286046893.3,N,0.0,0.0
1479537835.0,286046893.1,N,0.0,0.0
1479537835.9,286046893.1,N,0.0,0.0
1479537855.8,286046893.5,N,0.0,0.0
1479537875.6,286046892.9,N,0.0,0.0
1479537895.4,286046894.6,N,0.0,0.0
1479537915.3,286046895.1,N,0.0,0.0
1479537935.1,286046895.5,N,0.0,0.0
1479537955.8,286046894.9,N,0.0,0.0
1479537975.7,286046897.1,N,0.0,0.0
1479537995.5,286046897.1,N,0.0,0.0
1479538015.3,286046897.0,N,0.0,0.0
1479538035.2,286046896.6,N,0.0,0.0
1479538055.0,286046896.1,N,0.0,0.0
1479538055.9,286046896.1,N,0.0,0.0
1479538075.8,286046896.0,N,0.0,0.0
1479538095.6,286046898.7,N,0.0,0.0
1479538115.4,286046895.8,N,0.0,0.0
1479538135.3,286046897.6,N,0.0,0.0
1479538155.1,286046898.6,N,0.0,0.0
1479538175.9,286046898.1,N,0.0,0.0
1479538195.7,286046897.6,N,0.0,0.0
1479538215.5,286046900.2,N,0.0,0.0
1479538235.4,286046900.1,N,0.0,0.0
1479538255.2,286046899.2,N,0.0,0.0
1479538275.0,286046899.3,N,0.0,0.0
1479538275.9,286046899.3,N,0.0,0.0
1479538295.8,286046901.8,N,0.0,0.0
1479538315.6,286046901.3,N,0.0,0.0
1479538335.5,286046901.4,N,0.0,0.0
1479538355.3,286046901.3,N,0.0,0.0
1479538375.1,286046903.2,N,0.0,0.0
1479538395.9,286046900.6,N,0.0,0.0
1479538415.7,286046903.4,N,0.0,0.0
1479538435.6,286046902.9,N,0.0,0.0
1479538455.4,286046902.5,N,0.0,0.0
1479538475.2,286046904.7,N,0.0,0.0
1479538495.1,286046905.0,N,0.0,0.0
1479538496.0,286046905.0,N,0.0,0.0
1479538515.8,286046905.2,N,0.0,0.0
1479538535.6,286046904.5,N,0.0,0.0
1479538555.5,286046904.5,N,0.0,0.0
1479538575.3,286046904.0,N,0.0,0.0
1479538595.2,286046906.2,N,0.0,0.0
1479538615.9,286046908.3,N,0.0,0.0
1479538635.7,286046908.2,N,0.0,0.0
1479538655.6,286046905.3,N,0.0,0.0
1479538675.4,286046905.6,N,0.0,0.0
1479538695.3,286046907.5,N,0.0,0.0
1479538715.1,286046907.7,N,0.0,0.0
1479538716.0,286046907.7,N,0.0,0.0
1479538735.8,286046907.8,N,0.0,0.0
1479538755.7,286046907.1,N,0.0,0.0
1479538775.5,286046909.6,N,0.0,0.0
1479538795.3,286046907.2,N,0.0,0.0
